Regional Weather Roundup
Issued by NWS

Home | Current Version | Previous Version | Text Only | Print | Product List | Glossary Off
Versions: 1 2 3 4 5 6 7 8 9 10 11 12 13 14 15 16 17 18 19 20 21 22 23 24 25 26 27 28 29 30 31 32 33 34 35 36 37 38 39 40 41 42 43 44 45 46 47 48 49 50

000
ASUS43 KLOT 250510
RWRIL

ILLINOIS REGIONAL WEATHER ROUNDUP
NATIONAL WEATHER SERVICE CHICAGO/ROMEOVILLE IL
1200 AM CDT SAT OCT 25 2014

NOTE: "FAIR" INDICATES FEW OR NO CLOUDS BELOW 12,000 FEET WITH NO
SIGNIFICANT WEATHER AND/OR OBSTRUCTIONS TO VISIBILITY.

* THESE STATIONS ARE NOT UNDER NWS QUALITY CONTROL. THEY ALSO MAY NOT
  REPORT WEATHER SUCH AS PRECIPITATION OR FOG.

ILZ001-002-007-009-015-016-024-250600-
NORTHWEST ILLINOIS

CITY           SKY/WX    TMP DP  RH WIND       PRES   REMARKS
MOLINE         FOG       55  54  96 W3        29.94S VSB 1/4
STERLING*      CLOUDY    57  48  72 W3        29.94S
SAVANNA*       MOCLDY    59  56  90 W3        29.94S FOG
$$

ILZ003-004-008-010-011-017-018-250600-
NORTH CENTRAL ILLINOIS

CITY           SKY/WX    TMP DP  RH WIND       PRES   REMARKS
ROCKFORD       CLOUDY    57  50  77 S5        29.95F
FREEPORT*      CLOUDY    57  54  89 SW5       29.95S
ROCHELLE*      CLOUDY    56  49  77 W3        29.94S
DE KALB*       CLOUDY    58  49  74 W6        29.94S
PERU*          MOCLDY    55  50  81 W6        29.94F
$$

ILZ005-006-012>014-019>023-250600-
NORTHEAST ILLINOIS

CITY           SKY/WX    TMP DP  RH WIND       PRES   REMARKS
CHICAGO-OHARE  MOCLDY    60  49  66 SW6       29.92F
CHICAGO-MIDWAY CLOUDY    62  51  67 SW8       29.93F
AURORA         CLOUDY    57  49  74 SW5       29.93F
LANSING*       CLOUDY    58  51  77 SW7       29.94F
JOLIET*        PTCLDY    54  51  92 CALM      29.93F
WAUKEGAN       CLOUDY    56  49  77 SW6       29.91F
DUPAGE AIRPORT CLOUDY    58  50  75 SW7       29.93S
KANKAKEE*      CLOUDY    58  54  86 SW8       29.96S
WHEELING       CLOUDY    62  48  60 SW7       29.94F
MORRIS*        MOCLDY    55  53  94 CALM      29.92F
ROMEOVILLE*    PTCLDY    56  51  83 SW6       29.93F
NORTHERLY ISL    N/A     62  49  62 W6          N/A
$$

LMZ740>746-250600-
SOUTHERN LAKE MICHIGAN

STATION/POSITION SKY/WX   TEMP    WIND        PRES    VSBY  WAVE
                          AIR SEA DIR/SP/G                  HT/PER
                          (F)     (DEG/KT/KT) (MB)    (MI)  (FT/S)
SOUTHERN BUOY              56 54  190/ 10/ 10 1013.0F         1/ 2
WAUKEGAN HARBOR            59     230/  6/  8   N/A
HARRISON CRIB              63     230/ 15/ 22   N/A
BURNHAM HARBOR             62     230/  4/ 11   N/A
CALUMET HARBOR             60     210/  6/  9 1012.3F
MICHIGAN CITY              57     180/  7/  8   N/A
$$

ILZ025>027-034>036-040-047-049-050-058-095>099-250600-
WEST-CENTRAL ILLINOIS

CITY           SKY/WX    TMP DP  RH WIND       PRES   REMARKS
QUINCY         MOCLDY    61  57  87 SW6       29.96S
GALESBURG*     MOCLDY    54  50  85 CALM      29.94F
MACOMB*        MOCLDY    51  49  93 W3        29.97F
JACKSONVILLE*  MOCLDY    63  53  71 S6        29.96F
PITTSFIELD*    PTCLDY    63  57  81 W5        29.97F
$$

ILZ028>032-037-038-041>044-048-051>054-059>061-250600-
CENTRAL ILLINOIS

CITY           SKY/WX    TMP DP  RH WIND       PRES   REMARKS
PONTIAC        CLOUDY    61  55  79 SW9       29.95F
BLOOMINGTON    MOCLDY    59  54  83 S9        29.98F
DECATUR        CLOUDY    61  52  72 S12       29.98F
PEORIA         MOCLDY    59  50  72 S7        29.94F
LACON*         CLOUDY    60  51  70 SW5       29.93F
LINCOLN*       CLOUDY    59  53  79 S5        29.95F
SPRINGFIELD    CLOUDY    64  50  60 S9        29.97F
TAYLORVILLE    CLOUDY    55  50  82 S7        29.99F
$$

ILZ033-039-045-046-055>057-062-063-250600-
EAST-CENTRAL ILLINOIS

CITY           SKY/WX    TMP DP  RH WIND       PRES   REMARKS
CHAMPAIGN      CLOUDY    58  54  86 S8        29.99F
DANVILLE*      PTCLDY    54  52  92 SW7       29.95F
RANTOUL*       CLOUDY    59  55  87 S5        29.97F
MATTOON        CLOUDY    59  52  77 S10       30.00F
PARIS*         MOCLDY    51  51  99 S5        30.02S
$$

ILZ079-100>102-250600-
SOUTHWEST ILLINOIS

CITY           SKY/WX    TMP DP  RH WIND       PRES   REMARKS
ALTON          PTCLDY    60  50  69 S5        29.99S
BELLEVILLE     PTCLDY    57  53  86 S3        29.99F
CAHOKIA*       CLEAR     64  55  72 CALM      29.99F
SPARTA*        PTCLDY    60  52  75 S6        30.03S
$$

ILZ064>066-069>071-074>076-080>082-084>086-088>090-092>094-250600-
SOUTH-CENTRAL ILLINOIS

CITY           SKY/WX    TMP DP  RH WIND       PRES   REMARKS
CARBONDALE     MOCLDY    54  51  90 S5        30.03F
CAIRO*         CLEAR     52  49  89 CALM      30.06S
EFFINGHAM*     CLOUDY    60  50  69 S3        30.01F
MARION         PTCLDY    55  52  88 S6        30.04F
MT. VERNON     MOCLDY    55  48  76 SW5       30.03F
CENTRALIA*     MOCLDY    57  51  78 S5        30.02S
SALEM*         MOCLDY    60  55  83 S6        30.02S
METROPOLIS*    CLEAR     50  50 100 CALM      30.06S FOG
$$

ILZ067-068-072-073-078-083-087-091-250600-
SOUTHEAST ILLINOIS

CITY           SKY/WX    TMP DP  RH WIND       PRES   REMARKS
LAWRENCEVILLE  MOCLDY    51  50  96 S5        30.03F FOG
FLORA*         MOCLDY    57  53  85 SW5       30.03S
FAIRFIELD*     PTCLDY    54  51  91 CALM      30.03R
HARRISBURG*    PTCLDY    50  50 100 CALM      30.05F FOG
ROBINSON*      MOCLDY    52  51  95 CALM      30.04S
CARMI*         PTCLDY    51  51  99 S5        30.03F FOG
$$

ABBREVIATIONS USED IN REMARKS
   TC - TEMPERATURE IN CELSIUS
  WCI - WIND CHILL INDEX
   HX - HEAT INDEX
  VSB - VISIBILITY
$$




USA.gov is the U.S. government's official web portal to all federal, state and local government web resources and services.